Miles City, MT

12:02 PM MST on December 06, 2016 (GMT -0700)
Wiley

Weather History for KMLS - November, 2013

Change the Weather History Date:

Tuesday, November 12, 2013

  Actual Average Record
Temperature  
Mean Temperature 32 °F 34 °F  
Max Temperature 50 °F 45 °F 81 °F (1999)
Min Temperature 13 °F 23 °F -17 °F (2000)
Degree Days  
Heating Degree Days 33 31  
Month to date heating degree days 361 338  
Since 1 July heating degree days 1066 1149  
Cooling Degree Days 0 0  
Month to date cooling degree days 0 0  
Year to date cooling degree days 877 730  
Moisture  
Dew Point 25 °F    
Average Humidity 78    
Maximum Humidity 100    
Minimum Humidity 56    
Precipitation  
Precipitation 0.00 in 0.01 in 0.23 in (2005)
Month to date precipitation 0.03 0.19  
Year to date precipitation 16.43 11.95  
Sea Level Pressure  
Sea Level Pressure 30.41 in    
Wind  
Wind Speed 7 mph (SSE)    
Max Wind Speed 13 mph    
Max Gust Speed 15 mph    
Visibility 8 miles    
Events Fog    
T = Trace of Precipitation, MM = Missing Value Source: NWS Daily Summary

Daily Weather History Graph

Daily Weather History Graph

Search for Another Location

Airport or City:

Trip Planner

Search our weather history database for the weather conditions in past years. The results will help you decide how hot, cold, wet, or windy it might be!

Date:

Astronomy

Nov. 12, 2013 Rise Set
Actual Time 7:01 AM MST 4:33 PM MST
Civil Twilight 6:28 AM MST 5:06 PM MST
Nautical Twilight 5:52 AM MST 5:42 PM MST
Astronomical Twilight 5:17 AM MST 6:17 PM MST
Moon 2:04 PM MST (11/12) 1:37 AM MST (11/12)
Length of Visible Light 10h 37m
Length of Day
9h 32m
Waxing Gibbous, 77% of the Moon is Illuminated
Nov 12
Waxing Gibbous
Nov 17
Full
Nov 25
Last Quarter
Dec 2
New
Dec 9
First Quarter

Hourly Weather History & Observations

Time (MST) Temp. Windchill Dew Point Humidity Pressure Visibility Wind Dir Wind Speed Gust Speed Precip Events Conditions
12:53 AM 16.0 °F 4.4 °F 14.0 °F 92% 30.63 in 10.0 mi SSE 9.2 mph - N/A   Clear
1:53 AM 17.1 °F 5.8 °F 15.1 °F 92% 30.62 in 10.0 mi SSE 9.2 mph - N/A   Clear
2:53 AM 15.1 °F - 12.9 °F 91% 30.63 in 10.0 mi Calm Calm - N/A   Clear
3:53 AM 15.1 °F 6.4 °F 12.9 °F 91% 30.61 in 10.0 mi South 5.8 mph - N/A   Clear
4:22 AM 16.0 °F 8.8 °F 12.9 °F 88% 30.48 in 10.0 mi SSE 4.6 mph - N/A   Scattered Clouds
4:26 AM 16.0 °F 7.4 °F 14.0 °F 92% 30.48 in 1.8 mi SE 5.8 mph - N/A   Mostly Cloudy
4:43 AM 17.1 °F 7.6 °F 16.0 °F 96% 30.47 in 0.5 mi SSE 6.9 mph - N/A Fog Light Freezing Fog
4:53 AM 18.0 °F 9.8 °F 16.0 °F 92% 30.60 in 0.2 mi SSE 5.8 mph - N/A Fog Light Freezing Fog
5:53 AM 21.9 °F 11.7 °F 21.0 °F 96% 30.56 in 0.2 mi SSE 9.2 mph - N/A Fog Light Freezing Fog
6:53 AM 24.1 °F 14.4 °F 23.0 °F 96% 30.54 in 0.2 mi SSE 9.2 mph - N/A Fog Light Freezing Fog
7:02 AM 24.1 °F 15.2 °F 23.0 °F 96% 30.43 in 0.5 mi SSE 8.1 mph - N/A Fog Light Freezing Fog
7:12 AM 24.1 °F 16.0 °F 23.0 °F 96% 30.43 in 2.0 mi SSE 6.9 mph - N/A   Overcast
7:20 AM 24.1 °F 16.0 °F 23.0 °F 96% 30.43 in 5.0 mi SSE 6.9 mph - N/A   Overcast
7:43 AM 21.9 °F 14.5 °F 21.0 °F 96% 30.43 in 7.0 mi SSE 5.8 mph - N/A   Scattered Clouds
7:53 AM 21.9 °F 13.4 °F 21.0 °F 96% 30.54 in 8.0 mi SSE 6.9 mph - N/A   Clear
8:53 AM 24.1 °F 17.0 °F 21.9 °F 91% 30.53 in 9.0 mi SSE 5.8 mph - N/A   Clear
9:53 AM 28.9 °F 20.4 °F 26.1 °F 89% 30.50 in 10.0 mi SSE 9.2 mph - N/A   Clear
10:53 AM 32.0 °F 24.2 °F 28.9 °F 88% 30.47 in 10.0 mi SSE 9.2 mph - N/A   Clear
11:53 AM 37.9 °F 32.1 °F 30.0 °F 73% 30.43 in 10.0 mi South 8.1 mph - N/A   Clear
12:53 PM 43.0 °F 39.5 °F 32.0 °F 65% 30.37 in 10.0 mi SSE 5.8 mph - N/A   Clear
1:53 PM 48.0 °F - 35.1 °F 61% 30.31 in 10.0 mi SSE 9.2 mph - N/A   Clear
2:53 PM 50.0 °F - 36.0 °F 59% 30.29 in 10.0 mi South 8.1 mph - N/A   Clear
3:53 PM 48.9 °F - 37.0 °F 64% 30.27 in 10.0 mi SSE 9.2 mph - N/A   Clear
4:53 PM 44.1 °F 39.5 °F 35.1 °F 71% 30.24 in 10.0 mi SSE 8.1 mph - N/A   Clear
5:53 PM 43.0 °F 39.5 °F 35.1 °F 74% 30.23 in 10.0 mi South 5.8 mph - N/A   Clear
6:53 PM 35.1 °F 29.3 °F 32.0 °F 89% 30.24 in 10.0 mi West 6.9 mph - N/A   Clear
7:53 PM 37.0 °F 31.6 °F 33.1 °F 86% 30.22 in 10.0 mi South 6.9 mph - N/A   Clear
8:53 PM 36.0 °F 29.6 °F 33.1 °F 89% 30.21 in 10.0 mi South 8.1 mph - N/A   Clear
9:53 PM 36.0 °F - 32.0 °F 86% 30.20 in 10.0 mi Calm Calm - N/A   Clear
10:53 PM 37.9 °F - 33.1 °F 83% 30.19 in 10.0 mi Calm Calm - N/A   Clear
11:53 PM 36.0 °F 32.1 °F 32.0 °F 86% 30.18 in 10.0 mi SSE 4.6 mph - N/A   Clear